Farrell Flat Airport

Jump to: basic info | weather | frequencies | runways | comments

Related pages: nearby airports | nearby navaids | notams | map

Basic information (top)

Codes: YFFT
Location: lon -33.833302, lat 138.766998
Status: small_airport

Weather (top)

Current conditions for Adelaide International Airport 68nm (125km) S (rec'd 2014/10/20 22:00Z):

YPAD 202200Z 05013KT CAVOK 28/03 Q1019 FM2200 MOD TURB BLW 3000FT TILL 2300

Airport forecast for Adelaide International Airport 68nm (125km) S (rec'd 2014/10/20 18:33Z):

TAF YPAD 201704Z 2018/2124 04010KT CAVOK 
     FM210200 33010KT CAVOK 
     FM211100 18015KT CAVOK 
     FM212000 21015KT 9999 SCT025

Frequencies (top)

Verify before use: may be inaccurate or out of date.

CTAF: 122.4 MHz (CTAF)
MISC: 114.2 MHz (MISC)
MISC: 119.8 MHz (MISC)
MISC: 121.3 MHz (MISC)

Runways (top)

03/21: 1,443 ft (440 m) — grass — not lighted

14/32: 2,486 ft (758 m) — grass — not lighted

Latest comments (top)

No comments yet for Farrell Flat Airport

More... (top)

See also NOTAMs and nearby airports and navaids, or visit the Farrell Flat Airport page at the main OurAirports website..